Mobridge, SD

6:21 AM CST on November 18, 2017 (GMT -0600)
Mobridge Municipal

Weather History for KMBG - January, 2004

Change the Weather History Date:

Sunday, January 18, 2004

  Actual Average Record
Temperature  
Mean Temperature 3 °F 16 °F  
Max Temperature 8 °F 26 °F 53 °F (1991)
Min Temperature -2 °F 6 °F -36 °F (1943)
Degree Days  
Heating Degree Days 62 49  
Month to date heating degree days 882  
Since 1 July heating degree days 4098  
Cooling Degree Days 0 0  
Month to date cooling degree days 0  
Year to date cooling degree days 0  
Moisture  
Dew Point -6 °F    
Average Humidity 66    
Maximum Humidity 77    
Minimum Humidity 57    
Precipitation  
Precipitation 0.00 in 0.01 in 0.16 in (1979)
Month to date precipitation 0.18  
Year to date precipitation 0.18  
Snow  
Snow 0.00 in - - ()
Month to date snowfall  
Since 1 July snowfall  
Snow Depth -    
Sea Level Pressure  
Sea Level Pressure 30.37 in    
Wind  
Wind Speed 11 mph (NE)    
Max Wind Speed 16 mph    
Max Gust Speed -    
Visibility 10 miles    
Events      
T = Trace of Precipitation, MM = Missing Value Source: NWS Daily Summary

Daily Weather History Graph

Daily Weather History Graph

Search for Another Location

Airport or City:

Trip Planner

Search our weather history database for the weather conditions in past years. The results will help you decide how hot, cold, wet, or windy it might be!

Date:

Astronomy

Jan. 18, 2004 Rise Set
Actual Time 8:16 AM CST 5:27 PM CST
Civil Twilight 7:43 AM CST 6:00 PM CST
Nautical Twilight 7:07 AM CST 6:37 PM CST
Astronomical Twilight 6:31 AM CST 7:12 PM CST
Moon 5:18 AM CST 1:55 PM CST
Length of Visible Light 10h 17m
Length of Day
9h 11m
Waning Crescent, 13% of the Moon is Illuminated
Jan 18
Waning Crescent
Jan 21
New
Jan 29
First Quarter
Feb 6
Full
Feb 13
Last Quarter

Hourly Weather History & Observations

Time (CST) Temp. Windchill Dew Point Humidity Pressure Visibility Wind Dir Wind Speed Gust Speed Precip Events Conditions
12:55 AM 7.0 °F -9.8 °F 1.0 °F 77% 30.31 in 10.0 mi NNE 13.8 mph - N/A   Partly Cloudy
1:12 AM 6.8 °F -8.6 °F -0.4 °F 72% 30.22 in 10.0 mi North 11.5 mph - N/A   Mostly Cloudy
1:44 AM 5.0 °F -13.6 °F -2.2 °F 72% 30.22 in 10.0 mi NNE 16.1 mph - N/A   Partly Cloudy
1:55 AM 3.9 °F -14.3 °F -2.0 °F 76% 30.32 in 10.0 mi NNE 15.0 mph - N/A   Partly Cloudy
2:55 AM 3.0 °F -13.3 °F -4.0 °F 73% 30.35 in 10.0 mi North 11.5 mph - N/A   Scattered Clouds
3:55 AM 1.9 °F -15.5 °F -5.1 °F 72% 30.35 in 10.0 mi North 12.7 mph - N/A   Partly Cloudy
4:55 AM 1.0 °F -14.9 °F -7.1 °F 69% 30.37 in 10.0 mi North 10.4 mph - N/A   Clear
5:55 AM -0.0 °F -17.1 °F -9.0 °F 66% 30.40 in 10.0 mi North 11.5 mph - N/A   Clear
6:55 AM -0.9 °F -16.4 °F -9.9 °F 66% 30.42 in 10.0 mi North 9.2 mph - N/A   Clear
7:55 AM -2.9 °F -20.8 °F -11.9 °F 65% 30.43 in 10.0 mi NNE 11.5 mph - N/A   Clear
8:55 AM -2.9 °F -21.6 °F -11.0 °F 68% 30.44 in 10.0 mi NNE 12.7 mph - N/A   Clear
9:55 AM -2.0 °F -16.6 °F -11.9 °F 63% 30.44 in 10.0 mi NE 8.1 mph - N/A   Clear
10:55 AM -0.0 °F -15.3 °F -11.0 °F 60% 30.47 in 10.0 mi NNE 9.2 mph - N/A   Clear
11:55 AM 1.0 °F -8.7 °F -11.0 °F 57% 30.45 in 10.0 mi NNW 4.6 mph - N/A   Clear
12:55 PM 3.0 °F -6.4 °F -8.0 °F 60% 30.43 in 10.0 mi Variable 4.6 mph - N/A   Clear
1:55 PM 5.0 °F -5.6 °F -7.1 °F 58% 30.40 in 10.0 mi ENE 5.8 mph - N/A   Clear
2:55 PM 6.1 °F -2.8 °F -6.0 °F 58% 30.39 in 10.0 mi ESE 4.6 mph - N/A   Clear
3:55 PM 6.1 °F -0.9 °F -6.0 °F 58% 30.38 in 10.0 mi East 3.5 mph - N/A   Clear
4:55 PM 6.1 °F -4.3 °F -5.1 °F 60% 30.38 in 10.0 mi East 5.8 mph - N/A   Clear
5:55 PM 5.0 °F -5.6 °F -5.1 °F 63% 30.37 in 10.0 mi ESE 5.8 mph - N/A   Clear
6:55 PM 5.0 °F -2.1 °F -4.0 °F 66% 30.37 in 10.0 mi East 3.5 mph - N/A   Clear
7:55 PM 5.0 °F -4.1 °F -4.0 °F 66% 30.37 in 10.0 mi ESE 4.6 mph - N/A   Clear
8:55 PM 7.0 °F -5.7 °F -2.9 °F 64% 30.35 in 10.0 mi East 8.1 mph - N/A   Overcast
9:55 PM 7.0 °F -7.5 °F -2.0 °F 67% 30.34 in 10.0 mi SE 10.4 mph - N/A   Overcast
10:55 PM 8.1 °F -6.2 °F -2.0 °F 64% 30.33 in 10.0 mi SE 10.4 mph - N/A   Overcast
11:55 PM 8.1 °F -6.2 °F -0.9 °F 67% 30.33 in 10.0 mi SE 10.4 mph - N/A   Overcast